093  
NZUS99 KIND 181409  
HRRIND  
 
WEATHER ROUNDUP FOR INDIANA AND SURROUNDING STATES  
NATIONAL WEATHER SERVICE INDIANAPOLIS IN  
1000 AM EDT WED SEP 18 2019  
   
..INDIANA
 
 
 
CITY SKY/WX TMP DP RH WIND PRES REMARKS  
INDIANAPOLIS FAIR 70 60 70 E7 30.12S  
ZIONSVILLE FAIR 67 64 90 E3 30.14S  
FISHERS FAIR 72 64 78 E6 30.14S  
ANDERSON FAIR 69 59 70 SE7 30.14S  
MOUNT COMFORT FAIR 68 64 88 CALM 30.14S  
GREENWOOD FAIR 69 60 75 E7 30.13S  

 
 
CITY SKY/WX TMP DP RH WIND PRES REMARKS  
LAFAYETTE FAIR 68 61 78 SE5 30.12S  
FRANKFORT FAIR 69 62 80 SE7 30.14S  
CRAWFORDSVILLE FAIR 68 66 93 SE6 30.12S  
GREENCASTLE FAIR 68 61 77 SE6 30.13R  
COLUMBUS SUNNY 68 61 77 CALM 30.12S  
BEDFORD N/A 72 59 64 E5 30.10F  
SEYMOUR FAIR 72 63 73 E3 30.11R  
NORTH VERNON FAIR 68 61 77 NE3 30.11S  

 
 
CITY SKY/WX TMP DP RH WIND PRES REMARKS  
GARY SUNNY 68 61 77 SE10 30.13S  
VALPARAISO FAIR 69 60 73 SE5 30.15R  
LA PORTE FAIR 66 60 81 SE7 30.15S  
MICHIGAN CITY FAIR 68 64 88 SE8 30.14S  
SOUTH BEND FAIR 68 58 70 SE6 30.16S  
GOSHEN FAIR 67 59 75 SE8 30.16R  
ANGOLA FAIR 66 N/A N/A E8 30.17S  
KENDALLVILLE FAIR 66 58 73 SE6 30.19R  
AUBURN FAIR 64 59 82 E7 30.18S  
RENSSELAER FAIR 64 61 88 SE5 30.14R  
KNOX FAIR 64 59 82 SE8 30.14S  
PLYMOUTH SUNNY 66 59 77 SE6 30.15S  
ROCHESTER FAIR 68 59 73 SE7 30.15S  
WARSAW FAIR 64 59 82 SE6 30.16R  
FORT WAYNE FAIR 65 59 81 E5 30.17R  
MONTICELLO FAIR 66 61 82 E5 30.13S  
LOGANSPORT FAIR 64 61 88 E7 30.15S  
PERU/GRISSOM FAIR 66 64 92 E3 30.14S  
HUNTINGTON FAIR 65 61 87 CALM 30.16S  
PORTLAND FAIR 66 55 68 E6 30.15S  
RICHMOND FAIR 66 63 88 E7 30.15S  
BATESVILLE SUNNY 68 63 83 VRB5 30.13S  
WASHINGTON FAIR 71 61 72 SE5 30.10S  
FRENCH LICK FAIR 68 59 73 NE6 30.10F  
MADISON FAIR 72 63 73 E3 30.13R  
HUNTINGBURG FAIR 72 64 76 MISG 30.09S  
JEFFERSONVILLE FAIR 70 62 74 CALM 30.10R  

 
   
..ILLINOIS
 
 
 
CITY SKY/WX TMP DP RH WIND PRES REMARKS  
CHICAGO PTSUNNY 69 60 73 S7 30.11S  
MOLINE FAIR 71 64 78 VRB3 30.07R  
ROCKFORD FAIR 66 62 87 S6 30.13R  
KANKAKEE FAIR 67 63 86 SE6 30.13S  
PEORIA FAIR 70 61 73 SE8 30.08S  
BLOOMINGTON FAIR 68 63 84 S9 30.11S  
CHAMPAIGN FAIR 68 63 84 SE8 30.12R  
RANTOUL FAIR 67 63 87 SE7 30.12S  
DANVILLE FAIR 68 64 85 SE5 30.11R  
QUINCY SUNNY 73 65 75 SE12 30.04S  
SPRINGFIELD FAIR 71 64 78 SE6 30.08S  
DECATUR FAIR 69 62 78 SE7 30.11R  
MATTOON FAIR 71 63 75 SE8 30.10R  
PARIS FAIR 71 65 83 SE7 30.12S  
EFFINGHAM FAIR 71 61 71 E9 30.11S  
ROBINSON FAIR 69 64 82 E3 30.11S  
OLNEY FAIR 71 64 79 E8 30.09S  
MOUNT VERNON FAIR 72 65 78 E6 30.08S  
FAIRFIELD FAIR 72 65 79 CALM 30.08S  
MOUNT CARMEL FAIR 71 62 73 E8 30.09S  
CARMI FAIR 72 64 78 E5 30.07S  

 
   
..KENTUCKY
 
 
 
CITY SKY/WX TMP DP RH WIND PRES REMARKS  
LOUISVILLE FAIR 74 61 63 E5 30.09R  
PADUCAH FAIR 76 65 68 E5 30.04S  
OWENSBORO SUNNY 75 64 69 E7 30.08S  
FORT KNOX FAIR 71 61 71 NE7 30.09F  
BOWLING GREEN FAIR 75 64 68 E6 30.06F  

 
   
..OHIO
 
 
 
CITY SKY/WX TMP DP RH WIND PRES REMARKS  
TOLEDO FAIR 71 56 58 E5 30.18S  
DEFIANCE FAIR 67 57 70 E6 30.18R  
FINDLAY FAIR 69 56 62 E8 30.17R  
WRIGHT-PAT AFB FAIR 70 58 65 E6 30.14R  
COLUMBUS MOSUNNY 71 55 56 E7 30.16R  
CLEVELAND FAIR 70 52 52 E9 30.23S  

 
   
..MICHIGAN
 
 
 
CITY SKY/WX TMP DP RH WIND PRES REMARKS  
DETROIT FAIR 69 61 75 SE9 30.21R  
GRAND RAPIDS FAIR 66 59 78 SE7 30.18R  
LANSING FAIR 67 60 78 SE9 30.20S  
KALAMAZOO FAIR 68 58 70 VRB3 30.18S  
BATTLE CREEK FAIR 67 60 78 SE7 30.18S  
MARSHALL FAIR 68 61 79 E7 30.18S  
JACKSON FAIR 67 60 78 E9 30.19S  
BENTON HARBOR FAIR 67 60 78 SE7 30.14S  
STURGIS FAIR 69 58 68 SE6 30.17S  
COLDWATER FAIR 68 60 77 SE5 30.18S  
HILLSDALE FAIR 67 59 76 E8 30.19R  

 
   
..OTHER LOCATIONS
 
 
 
CITY SKY/WX TMP DP RH WIND PRES REMARKS  
SAINT LOUIS MO MOSUNNY 75 63 66 SE9 30.06S  
CAPE GIRARDEAU FAIR 77 66 68 NE6 30.04S  
MILWAUKEE WI PTSUNNY 68 62 81 S8 30.13R  
NASHVILLE TN FAIR 76 63 64 E3 30.05S  

 
 
 
 
CLICK HERE TO GO TO PREVIOUS BULLETINS.

The Nexlab IN Page Main Text Page